Location: Gälforsberget
(66.6500°N, 22.4167°E)
Time: 08:04:39
(UTC+00:00)

Cosmos 1850 Rocket - Pass Details

Date: 11 April 2026
Orbit: 750 x 780 km, 74.0° (Epoch: 9 May)

Event Time Altitude Azimuth Distance (km) Brightness Sun altitude
Rises 23:19:24 0° 318° (NW) 3,245 7.8 -14.2°
Reaches altitude 10° 23:21:48 10° 316° (NW) 2,312 6.9 -14.2°
Maximum altitude 23:27:00 67° 236° (SW) 828 4.0 -14.1°
Enters shadow 23:31:39 13° 155° (SSE) 2,102 5.8 -13.9°
